Find Starlink 11441

NORAD ID: 62413 Int'l Des: 2024-249 Owner: SPXS Country: US Constellation: starlink operational
LEOCIRCULAR

实时位置

正在加载3D地球...

关于 Starlink 11441

正在加载描述...

即将过境

Passes for default location (London). Set your location on the main map for personalized predictions.

高度历史

Loading altitude history...

两行轨道根数

1 62413U 24249E 26119.55520551 .00133662 00000-0 10276-2 0 9993
2 62413 43.0000 220.7657 0000821 187.8688 172.2167 15.70860226 77480
Epoch: Apr 29, 2026 • Age: 24 hours

当前状态

高度 368.9 km
速度 7.69 km/s
星下点 -43.15°S, 64.73°E
发射日期 Dec 23, 2024
运行时间 1.3 years
类型 internet

技术详情

分类 Payload
质量 960.00 kg
干质量 910.00 kg
总质量 960.00 kg
长度 0.30 m
直径 4.10 m
跨度 29.00 m
形状 Box + pan
制造商 SPXS
平台类型 Starlink V2MD
阶段状态 In Orbit
所有者/国家 SPXS/US

Most Searched